[[{"header":{"parameterUnit":"m.s-1","parameterCategory":1,"la1":30.2991,"la2":30.254,"lo1":-89.0895,"lo2":-89.0444,"dy":0.0017,"dx":0.0017,"nx":28,"ny":28,"refTime":"2024-11-24T03:00:00:Z","depth":0,"parameterNumber":2,"parameterNumberName":"U-component_of_WINDS"},"data":[0,0,0,0,0,0,0,0,0,0,0,0,0,0,0,0,0,0,0,0,0,0,0,0,0,0,0,0,0,0,0,0,0,0,0,0,0,0,0,0,0,0,0,0,0,0,0,0,0,0,0,0,0,0,0,0,0,0,2.0514,2.0514,0,2.0514,2.0514,2.0514,2.0507,2.0507,2.0507,2.0507,2.0506,2.0506,2.0506,0,0,0,0,0,0,0,0,0,0,0,0,0,2.0506,2.0506,2.0514,2.0514,2.0514,2.0514,2.0514,2.0514,2.0507,2.0507,2.0507,2.0507,2.0506,2.0506,2.0506,0,0,0,0,0,0,0,0,0,0,0,0,0,2.0508,2.0506,2.0514,2.0511,2.051,2.0514,2.0514,2.0514,2.0507,2.0507,2.0507,2.0506,2.0506,2.0506,2.0506,2.0513,0,0,2.0507,2.0507,0,0,0,0,0,0,0,0,2.0508,2.0508,2.0511,2.0511,2.051,2.051,2.0511,2.0514,2.0507,2.0508,2.0507,2.0506,2.0507,2.0507,2.0508,2.0513,2.0513,2.0507,2.0507,2.0507,2.0507,0,0,0,0,0,0,0,2.0508,2.0508,2.0514,2.0511,2.0511,2.0508,2.0508,2.0511,2.0509,2.0508,2.0508,2.0508,2.0507,2.0508,2.0508,2.0513,2.0507,2.0507,2.0507,2.0507,2.0521,2.0522,0,0,0,0,0,0,2.0508,2.0508,2.0514,2.0514,2.0509,2.0509,2.0509,2.0511,2.0509,2.0509,2.0508,2.0508,2.0508,2.0508,2.0508,2.0515,2.0507,2.0507,2.0507,2.0521,2.0521,2.0522,0,0,0,0,0,0,2.0508,2.0509,2.0514,2.0511,2.0511,2.0509,2.0511,2.0511,2.0511,2.0509,2.0509,2.0509,2.0507,2.0508,2.0511,2.0515,2.0507,2.0507,2.0521,2.0521,2.0521,2.0529,0,0,0,0,0,0,2.0508,2.0509,2.0512,2.0511,2.0512,2.0518,2.0512,2.0511,2.0512,2.0511,2.051,2.051,2.0507,2.0511,2.0512,2.0515,2.0508,2.052,2.0521,2.0521,2.0528,2.053,2.0531,0,0,0,0,0,2.0508,2.0514,2.0512,2.0513,2.0515,2.0518,2.0518,2.0516,2.0512,2.0515,2.0513,2.051,2.0514,2.0512,2.0512,2.0515,2.052,2.0521,2.0521,2.0528,2.0529,2.0531,0,0,0,0,0,0,2.0515,2.0514,2.0512,2.0518,2.0518,2.0517,2.052,2.0517,2.0518,2.0518,2.0514,2.0514,2.0518,2.0517,2.0514,2.0521,2.0517,2.0517,2.0521,2.0523,2.0524,2.0524,2.0508,0,0,0,0,0,2.0518,2.0521,2.0519,2.0525,2.0525,2.0523,2.0524,2.0522,2.0522,2.0521,2.052,2.052,2.0521,2.0522,2.0523,2.0528,2.0527,2.0531,2.0532,2.0533,2.0533,2.0535,2.0536,2.0523,2.0523,2.0523,0,0,2.0523,2.0522,2.0525,2.0526,2.0526,2.0529,2.0523,2.0526,2.0527,2.0522,2.0525,2.0524,2.0523,2.0528,2.0529,2.0527,2.0537,2.0533,2.0534,2.0534,2.0536,2.0537,2.0538,2.0524,2.0524,2.0524,0,0,2.0533,2.0534,2.0538,2.0538,2.0538,2.0536,2.0537,2.0536,2.0535,2.0538,2.0534,2.0535,2.0537,2.0537,2.0537,2.0545,2.0542,2.0546,2.0551,2.0553,2.0554,2.0555,2.0557,2.0558,2.0546,2.0547,2.0547,0,2.0539,2.0543,2.054,2.0543,2.0544,2.0539,2.0543,2.0543,2.0543,2.0543,2.054,2.0542,2.0542,2.0545,2.0547,2.0548,2.0548,2.0546,2.0554,2.0555,2.0556,2.0558,2.0559,2.0547,2.0547,2.0547,2.0547,0,2.055,2.0553,2.0556,2.0556,2.0557,2.0561,2.0558,2.0559,2.0556,2.0554,2.0557,2.0556,2.0556,2.0557,2.0555,2.056,2.0558,2.0555,2.055,2.0557,2.0559,2.056,2.0548,2.0547,2.0547,2.0547,0,0,2.0566,2.0564,2.0565,2.0564,2.0563,2.0565,2.0568,2.0568,2.0569,2.0569,2.057,2.0572,2.0569,2.0568,2.0566,2.0567,2.0573,2.0564,2.0564,2.0565,2.0578,2.058,2.0581,2.0571,2.0571,2.0571,2.0578,0,2.0575,2.058,2.0577,2.0582,2.0583,2.0578,2.0581,2.058,2.0578,2.0579,2.0577,2.0577,2.0574,2.0573,2.0575,2.0572,2.0576,2.0572,2.0572,2.0572,2.0572,2.0582,2.0585,2.0591,2.0579,2.0579,2.0579,0,2.0586,2.0587,2.0592,2.059,2.059,2.0592,2.0592,2.0593,2.0591,2.059,2.0589,2.0586,2.0588,2.0583,2.0585,2.0582,2.0582,2.0581,2.0581,2.058,2.0576,2.0582,2.0593,2.0594,2.058,2.058,2.058,0,2.0596,2.0598,2.0601,2.0601,2.0598,2.06,2.0599,2.0597,2.0597,2.0596,2.0596,2.0596,2.0596,2.0595,2.0591,2.0589,2.0593,2.0589,2.0591,2.0591,2.0592,2.0592,2.0603,2.0593,2.0593,2.0593,2.0593,0,2.0606,2.0609,2.0605,2.0607,2.061,2.0606,2.0609,2.0607,2.0606,2.0607,2.0602,2.0603,2.0598,2.0599,2.0596,2.0597,2.0597,2.0595,2.0594,2.0596,2.0596,2.0595,2.0594,2.0593,2.0593,2.0593,2.0593,0,2.0617,2.0615,2.0617,2.0615,2.0614,2.0616,2.0614,2.0615,2.0613,2.0614,2.0614,2.061,2.061,2.0606,2.0605,2.0603,2.0606,2.0604,2.0606,2.0606,2.0608,2.0608,2.0619,2.062,2.0609,2.061,2.061,0,2.0624,2.0626,2.0624,2.0624,2.0623,2.0624,2.0624,2.062,2.062,2.0618,2.0619,2.0619,2.0618,2.0618,2.0615,2.0614,2.0612,2.0616,2.0612,2.0613,2.0611,2.0611,2.0611,2.0617,2.0617,2.0617,2.0617,0,2.0635,2.0634,2.0634,2.0633,2.0634,2.0633,2.0632,2.0633,2.0628,2.0628,2.0628,2.0628,2.0627,2.0626,2.0624,2.0623,2.0619,2.0618,2.0619,2.062,2.0621,2.062,2.0608,2.0618,2.0618,2.0618,2.0618,2.0618,2.0644,2.0645,2.0643,2.0644,2.0643,2.0642,2.0642,2.064,2.064,2.0639,2.0636,2.0637,2.0634,2.0632,2.063,2.063,2.0628,2.0629,2.0629,2.0629,2.0629,2.0621,2.063,2.063,2.0629,2.0629,2.0629,0,2.0654,2.0653,2.0653,2.0652,2.0652,2.0649,2.0647,2.0647,2.0648,2.0646,2.0645,2.0645,2.0644,2.0641,2.0639,2.0639,2.0638,2.0639,2.0639,2.0638,2.0632,2.0631,2.0641,2.0641,2.0641,2.0641,2.0641,2.0641,2.066,2.0662,2.066,2.0661,2.0659,2.0659,2.0659,2.0658,2.0656,2.0656,2.0655,2.0653,2.0651,2.0649,2.0648,2.0647,2.0646,2.0648,2.0647,2.064,2.0639,2.0638,2.0637,2.0648,2.0648,2.0654,2.0654,2.0654]},{"header":{"parameterUnit":"m.s-1","parameterCategory":1,"la1":30.2991,"la2":30.254,"lo1":-89.0895,"lo2":-89.0444,"dy":0.0017,"dx":0.0017,"nx":28,"ny":28,"refTime":"2024-11-24T03:00:00:Z","depth":0,"parameterNumber":3,"parameterNumberName":"V-component_of_WINDS"},"data":[0,0,0,0,0,0,0,0,0,0,0,0,0,0,0,0,0,0,0,0,0,0,0,0,0,0,0,0,0,0,0,0,0,0,0,0,0,0,0,0,0,0,0,0,0,0,0,0,0,0,0,0,0,0,0,0,0,0,3.0921,3.092,0,3.078,3.0778,3.0776,3.07,3.0699,3.0699,3.0699,3.0547,3.0544,3.054,0,0,0,0,0,0,0,0,0,0,0,0,0,3.112,3.1116,3.0922,3.092,3.0918,3.078,3.0778,3.0776,3.07,3.0699,3.0699,3.0699,3.0549,3.0544,3.0539,0,0,0,0,0,0,0,0,0,0,0,0,0,3.1011,3.1115,3.0922,3.0863,3.0857,3.078,3.0778,3.0775,3.07,3.0699,3.0699,3.0699,3.055,3.0545,3.0539,3.0507,0,0,3.0521,3.0518,0,0,0,0,0,0,0,0,3.1017,3.1004,3.0874,3.0867,3.086,3.0757,3.0792,3.0685,3.07,3.0759,3.0699,3.0699,3.0617,3.0606,3.0579,3.05,3.0494,3.052,3.0517,3.0514,3.0513,0,0,0,0,0,0,0,3.1025,3.101,3.0865,3.0872,3.0863,3.0842,3.0826,3.0772,3.0691,3.0754,3.0748,3.0733,3.0613,3.0585,3.0575,3.0492,3.0521,3.0515,3.0512,3.0509,3.038,3.038,0,0,0,0,0,0,3.1043,3.1016,3.087,3.0861,3.094,3.0839,3.0821,3.079,3.0691,3.0676,3.0733,3.073,3.0595,3.0582,3.057,3.0527,3.0514,3.0509,3.0506,3.038,3.038,3.038,0,0,0,0,0,0,3.1047,3.1031,3.0875,3.0937,3.0916,3.0836,3.0801,3.0788,3.076,3.0676,3.066,3.072,3.0595,3.0578,3.0524,3.052,3.0506,3.0501,3.0379,3.038,3.038,3.0441,0,0,0,0,0,0,3.1054,3.1033,3.1022,3.0938,3.0913,3.0834,3.0801,3.0785,3.0751,3.0745,3.0659,3.0645,3.0593,3.0533,3.0518,3.0512,3.0496,3.0379,3.038,3.038,3.0439,3.0443,3.0447,0,0,0,0,0,3.1061,3.1043,3.1021,3.1004,3.0898,3.0834,3.082,3.0763,3.0751,3.0738,3.0684,3.0647,3.0523,3.0528,3.0511,3.0503,3.0379,3.038,3.038,3.0437,3.0442,3.0447,0,0,0,0,0,0,3.1126,3.1031,3.1006,3.0961,3.0907,3.0822,3.0804,3.077,3.0716,3.0713,3.0642,3.0623,3.0576,3.0534,3.0541,3.0467,3.0447,3.0444,3.0497,3.0501,3.0505,3.0516,3.0492,0,0,0,0,0,3.1136,3.1094,3.1012,3.098,3.0955,3.0884,3.0854,3.0815,3.0755,3.0731,3.0673,3.0615,3.0562,3.0529,3.0476,3.0432,3.0412,3.0418,3.0422,3.0426,3.0424,3.0397,3.0399,3.038,3.038,3.038,0,0,3.1154,3.1097,3.1074,3.0992,3.0945,3.0903,3.0865,3.0821,3.0788,3.0724,3.067,3.0626,3.0555,3.0507,3.0482,3.047,3.0424,3.0426,3.0429,3.0425,3.0397,3.0399,3.0401,3.038,3.038,3.038,0,0,3.1165,3.1119,3.1087,3.1042,3.0973,3.0926,3.0919,3.0839,3.0808,3.0753,3.0704,3.0663,3.0574,3.0526,3.049,3.0485,3.0449,3.047,3.049,3.0465,3.0467,3.0468,3.0466,3.0466,3.0468,3.0468,3.0468,0,3.1196,3.1132,3.1074,3.1034,3.0999,3.0941,3.0907,3.0865,3.0782,3.0758,3.0746,3.0634,3.0582,3.0522,3.0521,3.0493,3.0482,3.0479,3.0472,3.0472,3.0472,3.0469,3.0469,3.0471,3.047,3.047,3.047,0,3.1174,3.113,3.1112,3.1036,3.0998,3.0962,3.0896,3.0865,3.0829,3.0783,3.0728,3.0665,3.0598,3.0581,3.0544,3.0515,3.0509,3.0485,3.0464,3.0478,3.0474,3.0473,3.0475,3.0474,3.0473,3.0472,0,0,3.1222,3.1116,3.111,3.1075,3.0995,3.0959,3.0918,3.0856,3.0831,3.0774,3.0738,3.0665,3.0643,3.0602,3.056,3.0538,3.0538,3.0516,3.0513,3.0523,3.0502,3.0521,3.0521,3.0514,3.0514,3.0513,3.0508,0,3.1223,3.1151,3.1098,3.1046,3.1004,3.0949,3.0914,3.086,3.0816,3.0772,3.0722,3.0672,3.0646,3.0622,3.0598,3.0544,3.0533,3.0543,3.0479,3.0477,3.0499,3.0519,3.0539,3.0537,3.0506,3.0506,3.0505,0,3.1214,3.1163,3.1108,3.1033,3.1013,3.0983,3.0922,3.0881,3.0819,3.0788,3.0744,3.07,3.0654,3.0637,3.0571,3.058,3.055,3.0519,3.0518,3.0509,3.0493,3.0512,3.0535,3.0535,3.0503,3.0503,3.0503,0,3.1255,3.1172,3.1129,3.11,3.1012,3.0992,3.0954,3.0891,3.0857,3.0802,3.0779,3.0719,3.0686,3.064,3.0581,3.0574,3.0522,3.05,3.0494,3.0496,3.0486,3.0487,3.0505,3.0466,3.0466,3.0466,3.0466,0,3.1262,3.123,3.1147,3.112,3.1083,3.1021,3.0985,3.0941,3.0886,3.0848,3.0795,3.0761,3.0685,3.0641,3.0594,3.0547,3.0532,3.0505,3.0493,3.051,3.0514,3.049,3.0489,3.0466,3.0466,3.0466,3.0466,0,3.1302,3.1245,3.1194,3.1115,3.1095,3.107,3.1002,3.0972,3.0926,3.0879,3.0864,3.0791,3.0736,3.0673,3.0596,3.0565,3.0522,3.0503,3.0544,3.0537,3.0535,3.0537,3.0538,3.0536,3.0499,3.05,3.05,0,3.131,3.1285,3.1204,3.1177,3.1141,3.1097,3.1063,3.1,3.0966,3.0894,3.0873,3.0815,3.0765,3.068,3.0618,3.0559,3.054,3.0544,3.053,3.0549,3.054,3.0543,3.054,3.0548,3.0549,3.055,3.055,0,3.1331,3.1304,3.1259,3.1203,3.1165,3.1117,3.1067,3.1047,3.0974,3.0938,3.0883,3.0845,3.0768,3.0711,3.0645,3.0602,3.0564,3.0555,3.0551,3.0568,3.0593,3.058,3.0555,3.0555,3.0555,3.0555,3.0554,3.0554,3.1355,3.1331,3.1271,3.1222,3.1178,3.1133,3.1103,3.1053,3.1007,3.0942,3.0907,3.0852,3.0789,3.0697,3.0656,3.0611,3.0598,3.0592,3.059,3.059,3.0595,3.06,3.0599,3.0599,3.0598,3.0598,3.0598,0,3.1374,3.1333,3.1289,3.1222,3.1183,3.1153,3.1096,3.1065,3.1018,3.0964,3.0917,3.0854,3.0798,3.0732,3.0672,3.0649,3.0629,3.0635,3.0636,3.0627,3.061,3.062,3.0651,3.0651,3.0651,3.0651,3.0651,3.0651,3.1379,3.1336,3.1303,3.1238,3.1196,3.1144,3.1115,3.1072,3.1029,3.0961,3.0916,3.0874,3.0815,3.075,3.0697,3.0679,3.066,3.0671,3.0647,3.0633,3.0628,3.0624,3.0633,3.0667,3.0667,3.0668,3.0668,3.0668]}]]